Kuchera_Ratio
0.0 0.0 0.0 0.0 0.0 0.0 0.0 0.0 0.0 0.0 0.0 0.0 0.0 0.0 0.0 0.4 0.0 0.0 0.0 0.6 1.2 0.2 0.2 5.4 5.2 1.8 2.4 2.2 3.0 1.4 3.0 4.4 5.0 2.6 1.8 0.6 2.2 1.6 0.0 0.0 0.0 0.0 0.0
0.0 0.0 0.0 0.0 0.0 0.0 0.0 0.0 0.0 0.0 0.0 0.0 0.0 0.2 0.6 1.6 1.4 3.0 4.0 3.4 4.4 4.8 3.4 5.4 7.0 3.6 4.6 4.0 4.4 4.8 5.6 5.2 3.8 6.2 5.8 5.0 4.6 3.6 5.0 3.2 0.0 0.0 4.0
0.0 0.0 0.0 0.6 0.0 2.6 1.4 0.0 0.0 0.0 0.0 0.0 1.2 3.8 3.8 3.0 3.4 2.6 3.8 4.4 5.0 6.0 6.2 6.6 8.0 8.0 8.0 6.0 7.0 7.0 6.6 6.2 6.4 6.4 8.8 7.0 6.0 6.2 5.4 6.8 7.7 3.2 1.6
0.0 1.6 2.0 2.8 2.6 2.8 2.6 0.4 0.0 0.0 0.0 0.0 0.0 2.6 4.6 3.4 3.6 3.4 3.2 3.6 6.0 6.6 6.8 7.0 9.0 9.2 10.8 9.2 8.0 8.4 8.4 7.0 7.2 7.0 9.2 9.8 8.8 8.8 7.8 8.6 11.6 10.4 10.3
1.7 2.9 3.3 3.6 3.2 4.2 3.4 0.0 0.0 0.0 0.0 0.0 0.0 0.0 0.0 1.6 6.6 4.8 4.2 4.8 5.2 5.8 5.6 4.6 7.6 9.2 10.4 9.6 9.8 10.8 7.8 7.6 8.8 8.8 9.8 10.8 12.0 12.1 13.5 11.4 10.8 12.1 11.6
2.9 3.9 4.0 4.1 5.2 6.0 2.6 0.4 0.8 1.2 5.4 6.6 2.8 4.0 6.2 4.2 10.4 11.0 6.0 6.8 6.2 6.2 8.2 5.4 5.0 8.2 8.4 12.5 10.8 11.8 11.6 10.2 11.2 11.6 13.5 13.8 14.3 12.6 11.0 12.3 11.8 11.8 12.4
3.4 4.3 5.1 5.4 6.5 7.7 5.0 5.0 9.4 9.6 8.2 9.6 9.6 8.8 9.4 9.6 10.8 11.8 10.2 9.2 10.4 11.6 11.0 9.2 8.4 8.6 6.8 6.4 11.8 11.4 12.3 12.6 12.5 9.0 13.6 14.7 14.2 14.1 11.4 10.2 10.4 11.4 13.2
2.6 5.1 5.6 6.5 7.6 8.5 9.6 10.3 10.4 10.0 10.0 9.4 9.8 9.0 9.4 10.4 11.4 12.1 10.6 10.0 10.2 11.0 11.6 12.0 12.6 13.1 13.3 11.8 11.8 13.4 13.8 13.8 13.7 13.3 14.1 14.5 14.0 12.4 8.8 6.2 5.0 7.0 6.4
0.4 3.0 5.6 7.5 8.2 9.7 10.7 11.6 10.0 10.0 10.2 10.2 9.8 9.8 9.6 10.6 11.4 12.0 9.0 9.4 11.2 11.6 11.4 12.1 12.5 13.4 13.8 13.3 14.4 15.0 14.8 14.4 13.2 13.4 13.4 13.5 13.5 13.4 12.1 6.6 9.8 3.4 11.2
0.0 0.0 0.6 3.8 7.0 11.1 11.4 10.8 9.8 9.2 10.0 8.4 10.6 9.8 10.6 11.0 11.4 12.3 9.4 5.4 10.8 9.4 10.4 11.6 13.1 13.6 13.8 14.1 14.1 14.3 15.4 15.5 14.2 13.7 13.2 12.9 13.1 13.7 13.9 13.6 12.3 13.0 12.8
1.6 0.0 1.4 1.6 3.4 5.8 6.8 5.0 6.0 6.6 7.0 9.0 10.4 10.4 9.8 9.6 11.0 12.3 12.2 9.4 9.0 9.4 9.8 11.4 12.3 13.8 14.2 14.5 14.7 15.6 16.0 14.0 13.7 13.3 13.0 12.9 13.0 13.4 14.0 14.2 14.3 14.8 15.0
6.0 7.0 7.6 7.0 6.0 5.4 7.4 7.0 5.4 4.8 8.0 8.2 6.6 6.2 5.2 7.2 10.0 12.0 12.8 12.7 12.2 11.2 12.5 12.3 13.6 14.5 15.1 15.3 15.1 15.8 15.2 13.4 12.9 13.4 13.8 14.4 14.6 14.2 13.7 13.8 14.6 14.5 14.8
7.7 9.2 9.4 9.0 8.6 8.6 9.6 10.0 7.4 7.2 6.6 7.6 7.4 8.0 8.0 8.4 7.8 12.0 13.1 13.9 13.7 12.0 12.7 15.6 16.3 16.4 15.9 14.8 16.1 15.7 14.5 13.4 13.8 14.5 15.1 14.9 14.3 13.8 12.9 12.5 12.6 12.3 12.9
8.8 10.4 9.8 9.8 10.0 9.6 7.6 7.6 7.0 8.6 8.8 8.0 8.4 9.2 8.8 9.0 9.4 9.6 12.1 13.0 15.1 13.9 15.3 14.4 15.9 16.2 16.6 15.1 13.8 13.9 14.1 14.5 14.6 14.7 14.6 13.7 12.6 12.9 13.4 12.7 13.1 12.5 12.8
8.8 9.2 6.8 5.8 7.8 9.6 7.8 8.4 7.2 7.6 5.8 7.8 8.0 7.8 10.2 11.2 10.6 11.0 12.1 12.4 12.5 14.2 14.2 13.3 12.7 12.3 13.0 13.1 13.6 14.5 14.1 13.9 14.6 14.6 14.5 14.1 13.8 13.3 13.6 12.7 12.9 12.6 14.0
5.0 5.0 4.4 3.4 4.6 4.2 6.6 9.8 11.8 7.6 9.2 10.6 9.2 7.2 9.4 10.6 13.4 14.0 14.5 15.0 16.0 16.3 13.6 13.7 14.5 14.3 14.3 14.1 14.4 14.6 14.9 16.1 15.7 15.2 15.2 15.1 14.9 15.0 14.4 13.9 13.7 14.0 14.6
0.0 0.8 1.8 2.6 2.6 4.0 4.6 8.0 12.2 12.5 12.0 12.4 12.2 11.6 11.2 12.5 13.2 13.3 13.9 15.1 16.8 16.6 13.6 13.8 14.7 14.8 14.6 14.2 14.6 15.1 16.2 17.1 16.8 16.2 16.4 16.9 16.3 15.5 15.3 15.4 15.4 15.2 15.3
0.0 4.2 1.4 1.8 2.8 4.0 4.4 5.6 7.4 12.2 13.2 13.4 12.6 12.1 12.2 12.0 12.6 13.3 14.3 15.8 15.6 15.2 13.2 14.2 14.9 14.5 14.0 14.3 14.8 15.6 16.2 16.6 17.1 17.1 17.6 18.1 18.3 16.6 16.7 16.6 16.4 17.9 16.6
0.0 1.8 3.0 4.0 5.4 6.2 6.4 7.2 8.6 10.2 11.2 12.2 12.3 12.0 11.0 12.2 13.0 13.7 14.7 13.0 13.6 14.2 14.1 14.2 14.2 14.3 14.5 14.9 16.4 17.2 18.0 18.7 19.3 18.6 18.3 18.7 19.1 17.6 18.0 17.7 17.2 19.6 19.6
4.8 6.8 6.4 6.8 8.0 8.6 8.8 10.0 10.8 11.0 11.4 11.0 11.2 11.8 12.2 13.1 14.3 14.7 13.8 13.8 14.1 13.7 14.3 14.6 14.9 14.8 15.5 16.0 16.9 17.4 17.3 18.1 18.0 17.9 19.0 19.2 19.2 18.3 18.4 18.9 18.4 18.8 17.7
4.2 7.0 7.6 7.0 8.2 7.8 8.2 9.8 9.6 10.2 9.8 10.4 10.8 11.0 12.0 12.5 13.1 13.4 13.9 14.5 14.4 14.4 15.2 15.1 16.1 16.9 17.1 17.0 16.4 17.3 17.9 18.0 18.8 19.1 19.2 19.3 20.6 20.0 19.0 18.4 18.6 18.5 18.4
4.0 6.4 7.2 7.6 7.2 7.8 7.2 6.8 8.2 9.2 9.8 10.6 11.6 12.9 13.2 12.7 12.8 13.3 13.8 14.6 14.7 14.7 14.8 16.1 16.6 16.6 16.6 16.7 17.2 18.2 19.1 19.7 19.4 19.6 19.9 21.5 20.9 19.7 19.9 19.7 20.0 19.7 19.3
4.4 7.4 7.4 7.2 7.0 8.8 9.6 8.2 9.8 10.4 10.2 11.6 12.2 13.2 13.9 13.6 13.7 13.8 14.4 15.2 15.8 16.8 16.6 16.7 17.2 18.1 18.3 18.7 17.9 17.9 18.9 19.5 20.0 21.6 22.1 21.9 21.3 20.6 20.8 20.6 20.8 21.2 20.9
5.4 8.2 7.4 8.0 9.2 9.4 10.6 11.4 10.8 10.8 10.8 12.6 12.9 13.3 13.9 13.8 13.9 14.6 15.4 16.0 16.4 16.9 17.8 18.2 18.0 19.0 20.0 20.0 19.5 19.4 19.8 20.7 20.6 21.6 26.4 23.5 22.3 21.9 22.0 22.0 21.7 22.4 22.6
7.2 8.8 8.8 8.8 10.2 10.6 11.4 11.8 11.8 11.8 12.1 12.5 12.8 13.0 13.6 13.8 14.5 14.9 15.5 16.3 17.1 17.9 18.9 19.3 19.2 20.1 21.7 22.2 21.5 22.0 23.7 25.8 25.2 27.7 22.8 24.4 24.5 25.9 24.2 23.7 23.7 23.2 23.2
7.8 7.6 8.2 8.6 9.8 10.6 12.1 12.0 11.8 12.1 12.5 12.7 12.8 13.3 13.7 14.3 14.4 15.1 16.2 17.3 18.2 18.6 19.0 19.2 19.7 20.5 21.5 21.8 22.6 23.4 26.0 26.4 26.0 28.6 24.6 22.4 23.4 23.2 23.3 24.2 25.2 24.1 23.7